Location: Navalmoral
(40.4603°N, 4.7686°W)
Time: 10:24:23
(UTC+00:00)

SJ 16-02 - Pass Details

Date: 05 August 2024
Orbit: 593 x 603 km, 75.0° (Epoch: 18 September)

Event Time Altitude Azimuth Distance (km) Brightness Sun altitude
Rises 21:57:14 0° 350° (N) 2,865 5.8 -23.4°
Reaches altitude 10° 21:59:38 10° 359° (N) 1,956 4.6 -23.7°
Enters shadow 22:03:10 35° 51° (NE) 990 2.3 -24.1°
